Wind_Speed
14 16 18 17 14 11 9 7 5 6 9 8 6 7 5 4 4 3 3 4 4 5 5 5 4 2 3 4 4 4 4 6 9 10 11 11 9 10 12 12 11 12 15 16 16 16 16 17 17 18 18 19 19 20 21 20 20 21 21 22 23 21 18 16 17 16 14 14 13 11 10 9 10 10 10 10 9 10 11 12 14 14 13 12 11
13 15 16 17 15 11 9 8 4 6 9 7 5 6 4 3 4 4 4 4 3 2 4 4 3 3 2 4 5 6 6 8 10 10 11 12 11 13 15 14 13 11 12 13 14 14 15 15 16 18 20 21 21 21 20 20 18 16 17 19 20 20 18 15 16 17 16 15 14 14 13 13 14 15 15 15 13 12 11 12 13 14 13 14 13
12 14 15 17 16 11 8 6 4 6 8 5 3 5 4 3 4 3 4 5 5 5 4 3 3 3 3 3 5 7 8 8 10 11 13 13 13 15 16 15 15 15 15 16 16 16 16 16 15 14 14 17 20 23 22 20 19 16 16 16 16 16 15 14 16 18 19 18 16 16 16 14 15 16 16 16 17 17 15 12 12 14 15 15 15
11 13 15 17 16 11 6 4 4 5 5 4 5 5 4 4 5 3 4 5 6 6 6 4 4 5 5 4 4 6 8 9 9 11 13 15 15 14 15 15 15 16 17 18 18 18 17 17 17 15 12 11 14 20 23 21 19 17 16 15 15 14 13 14 17 19 20 21 21 20 19 18 18 18 17 17 17 18 18 15 14 16 16 17 17
10 12 13 14 15 11 6 4 4 3 3 5 4 3 2 5 6 5 5 6 7 7 6 5 4 4 5 6 6 6 7 8 9 10 11 14 15 14 14 16 17 18 17 16 16 16 17 18 19 17 15 12 10 15 21 21 19 17 16 16 16 15 14 16 19 21 21 23 24 24 22 20 19 19 19 19 18 18 19 18 16 16 17 19 20
10 11 12 13 14 10 5 5 3 2 4 5 5 5 5 7 8 7 7 8 8 7 6 5 4 3 5 6 7 6 6 6 6 6 6 8 12 14 16 17 17 17 17 16 13 12 14 18 19 18 16 13 9 10 15 17 16 16 16 16 16 15 16 17 18 20 20 21 22 22 20 19 18 18 19 20 21 20 19 19 18 16 16 17 19
9 10 11 13 14 8 4 4 4 4 5 5 6 7 7 7 7 7 9 9 8 8 8 7 5 4 5 6 7 7 6 5 5 5 5 5 6 10 14 16 15 13 14 16 14 12 12 13 15 16 16 15 11 9 11 11 10 12 13 13 14 15 16 15 15 16 18 19 20 21 20 19 19 18 18 19 20 21 20 20 19 18 17 17 18
9 10 11 12 13 7 2 3 4 4 4 5 5 6 7 8 9 10 11 11 11 11 11 8 7 6 6 6 6 6 7 7 6 6 6 6 6 7 10 14 15 15 15 15 14 14 13 12 12 13 15 16 14 11 12 11 8 6 7 8 9 12 13 13 13 15 18 18 19 19 20 20 18 17 16 16 17 18 18 19 19 18 18 18 18
9 9 10 11 12 6 2 2 3 4 4 5 5 7 9 11 13 13 12 11 11 11 10 8 5 4 6 6 4 4 6 7 8 8 8 8 8 7 8 10 13 17 18 16 14 15 15 14 14 13 14 16 17 15 15 14 10 5 6 7 9 10 12 13 14 15 17 17 18 18 19 20 18 16 15 15 16 16 17 17 17 16 16 16 17
8 9 11 11 10 4 3 3 1 3 4 4 5 8 9 12 14 12 9 8 8 7 8 7 6 5 3 3 4 3 4 5 6 7 8 9 9 8 8 8 9 13 17 17 16 16 15 15 16 16 16 16 18 19 19 18 17 13 12 13 14 15 15 15 14 15 15 16 16 17 18 19 17 15 14 13 13 14 14 15 15 15 16 17 17
7 9 11 11 8 2 3 3 1 3 4 4 5 6 9 12 10 7 7 7 6 7 7 6 6 5 4 1 2 2 3 4 6 6 7 8 8 8 8 8 8 9 11 15 17 17 17 17 17 19 19 18 18 20 22 23 23 21 19 18 19 18 17 17 16 15 15 15 16 16 17 17 15 14 13 12 11 11 11 12 12 13 15 17 17
7 10 13 11 6 1 4 4 2 1 2 2 3 4 7 9 6 6 7 9 7 6 5 6 6 6 5 4 2 1 1 1 3 4 5 6 7 7 8 9 9 8 8 9 12 14 15 16 17 18 19 18 17 17 20 21 21 20 18 18 19 18 17 17 17 15 15 15 16 16 16 16 15 14 13 13 12 12 12 11 11 12 13 15 17
7 12 15 12 4 3 4 4 4 3 2 2 1 3 5 7 6 6 8 10 9 7 5 6 7 5 5 5 4 4 5 5 4 5 6 6 7 8 7 8 10 10 9 8 8 9 10 10 11 11 13 14 14 13 14 16 16 16 16 17 18 16 13 13 15 15 16 17 17 17 17 17 17 16 15 15 15 15 15 14 14 14 15 16 17
8 13 15 13 7 1 3 3 3 3 4 3 1 3 3 5 5 5 7 9 11 11 9 9 8 6 5 6 7 8 9 10 9 9 9 9 10 10 9 9 9 11 13 11 8 7 7 7 7 7 8 11 13 13 12 13 13 13 13 15 17 16 14 13 14 15 16 17 18 18 17 17 18 17 16 16 17 17 16 16 16 17 18 18 19
10 13 13 12 10 3 4 5 4 4 4 3 3 4 3 2 3 3 5 8 10 11 11 13 13 9 4 3 4 6 7 7 6 5 5 6 8 9 8 8 8 11 15 15 11 7 6 6 7 6 5 7 10 12 12 12 12 11 11 13 14 14 12 12 12 13 14 15 16 16 16 16 16 17 16 16 17 16 15 15 15 16 17 18 19
10 11 10 11 12 7 2 6 5 4 6 5 4 4 4 3 2 2 4 7 9 10 10 11 14 12 9 7 6 6 7 7 6 5 2 2 2 3 3 3 4 9 13 15 13 10 7 6 6 6 5 4 5 8 9 10 10 10 10 11 11 11 10 10 10 11 13 13 15 16 16 15 15 15 15 15 15 15 15 15 15 15 16 17 18
9 9 9 11 13 9 2 4 4 5 7 7 5 4 3 1 1 1 4 6 8 9 8 9 11 10 8 8 9 9 9 8 7 6 5 7 5 4 3 2 3 6 9 11 12 11 10 8 7 6 7 6 5 6 7 7 8 8 8 9 9 9 10 11 12 13 14 15 16 17 17 17 16 16 16 16 16 16 17 16 16 17 17 17 18
7 5 7 12 12 8 2 1 1 1 0 1 2 2 2 3 3 2 5 6 7 6 6 9 9 9 8 9 10 11 10 7 6 5 7 9 8 6 5 4 6 7 8 9 10 10 10 9 7 6 7 7 8 8 9 8 8 9 10 10 11 12 13 14 14 16 17 17 18 19 19 19 18 17 17 17 17 17 17 16 17 17 16 16 18
4 3 6 11 12 9 6 5 5 6 6 7 7 6 5 5 4 4 5 5 5 6 9 9 8 8 9 10 12 12 9 6 5 4 6 10 10 8 6 5 6 8 9 9 9 9 9 8 7 7 6 7 7 8 8 9 9 9 10 11 12 14 15 16 18 19 19 20 21 22 22 23 22 20 19 19 18 17 15 15 15 14 13 14 15
3 3 5 8 10 10 8 7 7 7 6 6 5 4 3 5 4 3 3 2 3 5 8 7 6 6 8 10 13 12 9 6 5 4 5 8 10 9 7 6 6 6 7 8 7 7 7 6 6 6 6 6 7 7 8 8 9 9 10 11 12 13 14 15 17 18 18 18 19 19 20 21 21 21 22 22 22 20 17 16 15 14 13 13 13
3 3 4 5 6 6 6 5 4 4 4 4 4 4 2 2 3 2 2 3 4 5 6 5 3 4 5 8 12 11 8 8 6 5 4 5 9 10 9 8 7 6 6 6 5 4 3 3 3 4 4 5 6 7 7 8 8 8 8 9 9 9 10 11 11 12 12 12 12 13 13 13 13 14 16 18 20 21 20 18 17 16 15 15 14
2 3 4 4 3 4 5 4 3 3 1 2 2 4 3 2 1 2 3 5 6 6 5 3 1 2 3 7 10 10 9 9 9 7 5 4 6 8 9 9 7 6 5 5 4 2 1 0 1 1 2 3 3 4 3 3 3 3 3 3 4 4 4 4 4 4 4 3 4 6 6 5 5 6 7 9 11 14 16 17 17 16 15 15 16
3 2 4 5 2 1 3 4 3 3 0 2 1 2 4 4 2 0 4 7 7 6 4 3 2 1 3 7 9 9 9 10 10 9 7 6 7 8 8 8 6 5 4 4 5 5 5 6 6 6 6 5 4 4 5 5 4 4 4 5 5 4 3 2 2 2 2 2 2 1 1 1 1 0 1 2 4 6 8 11 12 14 14 15 16
4 4 4 4 3 0 2 4 4 4 2 2 3 4 4 4 2 1 5 7 7 6 5 4 4 2 3 8 9 9 9 10 10 10 10 10 10 10 9 9 9 8 8 9 11 11 12 12 11 11 11 10 10 10 10 9 9 8 7 7 6 5 4 3 4 3 2 2 2 2 2 2 2 1 1 2 2 3 5 6 9 11 13 15 16
3 3 2 2 1 1 0 3 5 6 5 5 7 5 4 6 2 2 4 6 7 7 7 6 5 1 4 7 9 9 9 10 12 12 13 14 14 14 14 14 15 15 16 17 17 16 15 15 14 14 14 14 14 13 13 12 11 10 8 7 6 5 5 4 4 4 4 3 3 3 3 3 3 2 2 2 3 4 5 6 7 8 9 11 13
3 2 1 0 1 2 1 2 4 8 9 5 3 1 4 8 6 4 4 5 6 6 6 6 3 2 5 7 8 10 12 14 15 15 16 16 16 17 18 17 17 16 16 17 16 15 15 15 15 16 16 16 15 15 15 15 13 11 10 9 7 6 6 6 5 5 6 6 6 6 5 5 4 4 3 2 2 3 3 3 4 4 4 5 7
5 4 2 1 2 2 1 2 3 7 11 11 7 4 4 8 9 6 5 4 4 3 2 2 0 2 4 6 9 14 18 19 19 18 17 16 16 16 15 14 14 13 14 14 13 13 13 14 14 15 15 16 16 16 16 15 14 14 13 12 11 10 9 8 8 8 9 9 9 8 7 7 5 4 3 3 2 1 1 1 1 1 1 2 4
8 6 5 3 4 3 1 2 4 6 9 11 11 7 5 6 8 9 7 6 4 3 2 2 2 0 3 7 13 19 21 21 20 19 18 16 16 15 14 14 14 14 15 14 13 13 13 13 13 13 13 14 15 16 16 15 15 15 15 14 12 12 10 9 9 10 10 9 8 8 7 6 6 5 5 5 5 5 5 5 4 3 3 2 2
8 8 8 6 5 4 2 1 3 5 7 9 10 9 7 7 6 6 7 7 6 5 5 5 6 6 7 11 16 20 21 21 20 18 17 16 16 16 16 16 16 16 16 16 16 15 15 15 14 14 14 15 15 15 15 15 15 15 15 15 13 11 10 10 10 11 10 9 8 7 7 7 6 6 6 6 7 7 6 6 6 5 5 4 4
7 10 10 8 8 6 4 2 0 3 5 7 9 9 8 9 10 9 9 10 10 10 11 11 12 12 12 14 17 18 19 19 18 17 16 16 16 16 16 16 16 16 16 15 15 15 15 15 15 15 15 15 15 15 14 14 15 16 16 15 14 12 11 12 12 12 11 10 9 9 9 9 9 9 8 9 9 9 8 8 8 8 7 7 7
9 12 11 8 9 10 8 5 3 1 2 3 6 7 9 10 12 12 13 14 14 14 15 15 16 16 17 18 19 19 18 17 16 15 15 15 15 15 15 15 15 14 13 13 13 14 14 15 15 14 14 15 16 15 14 14 14 15 15 15 14 12 12 12 13 12 11 11 11 10 10 10 11 11 11 11 11 10 10 10 9 10 10 10 10
12 11 8 8 9 11 9 7 5 3 2 1 2 5 8 10 12 13 14 15 16 17 17 17 17 18 18 18 19 19 19 19 17 16 16 15 14 14 15 14 14 13 11 11 13 14 14 14 15 14 14 14 14 14 13 13 13 13 13 14 13 12 11 12 12 11 10 11 10 10 11 11 11 11 11 10 10 10 10 9 9 10 11 11 11
14 10 6 8 10 11 10 9 8 6 4 2 2 4 5 7 10 13 15 15 16 17 17 17 16 16 15 15 16 17 17 17 17 16 16 15 15 14 13 13 12 11 10 10 12 13 12 13 13 12 12 12 12 11 11 11 11 10 10 11 11 11 10 10 9 9 9 10 10 10 10 10 10 10 10 10 10 10 10 10 10 10 9 9 10
14 11 8 8 10 11 11 10 9 8 6 4 3 5 5 4 6 9 12 14 15 14 14 13 13 13 14 13 13 14 14 14 14 14 14 14 13 13 12 12 11 10 8 9 10 10 10 10 10 10 10 10 10 9 9 8 8 8 8 9 9 9 9 8 8 8 9 9 9 9 10 9 9 10 10 11 11 11 11 11 11 11 11 10 10
12 12 12 11 11 12 12 12 11 10 8 7 6 6 6 6 6 7 8 9 10 10 11 11 11 11 12 12 12 12 12 12 12 12 12 12 12 10 9 9 9 8 6 6 7 8 8 9 9 9 10 10 10 10 10 9 8 8 8 8 8 8 9 10 10 11 11 11 11 12 11 11 11 11 12 12 13 13 13 13 13 13 13 13 13
11 13 15 15 14 13 13 13 13 12 10 9 9 8 7 7 8 8 8 7 7 6 8 9 11 11 11 11 11 11 11 11 11 12 11 11 9 7 6 6 7 8 8 8 9 9 9 10 10 11 11 11 12 12 13 13 11 11 10 10 10 10 11 11 12 12 13 13 14 13 12 11 12 13 13 14 14 14 15 15 15 15 15 15 16
13 12 14 16 17 16 15 14 14 13 11 10 10 10 9 9 10 10 8 8 8 7 6 7 9 11 11 10 9 9 9 9 11 11 11 10 9 7 6 7 9 9 9 10 10 10 10 10 11 11 11 11 11 13 14 14 14 13 12 11 11 12 12 12 13 13 14 15 15 14 12 11 12 13 14 15 16 16 16 16 16 16 16 16 17
15 13 13 15 16 16 16 17 15 14 12 12 12 12 11 10 11 11 9 9 10 9 8 7 7 8 8 9 8 8 8 8 9 10 10 9 8 7 7 7 8 7 8 8 8 8 8 9 9 9 10 10 10 11 12 13 13 13 13 12 11 11 12 13 13 14 14 14 15 14 13 13 13 14 15 17 18 18 19 19 19 18 18 19 19
16 15 13 14 14 13 15 18 18 15 13 13 13 14 13 12 13 12 11 10 11 10 9 9 9 9 8 7 7 7 6 7 9 10 9 8 7 7 6 4 4 4 5 6 7 7 7 7 7 7 8 8 8 8 9 11 12 12 11 11 10 10 11 12 13 13 13 13 14 14 14 14 14 15 17 19 20 21 21 22 22 22 22 23 22
17 15 14 15 15 13 14 18 20 18 16 14 15 16 16 15 15 15 14 12 11 10 9 9 9 10 10 8 6 6 6 7 10 11 9 8 8 7 6 5 5 5 6 6 6 6 6 5 5 4 5 6 6 6 8 9 9 9 10 10 10 10 10 11 11 12 12 13 13 14 14 15 15 15 17 19 21 22 23 23 24 24 25 25 25
17 16 15 16 17 15 15 17 20 19 15 13 15 18 19 18 17 17 16 14 12 12 12 11 10 11 13 11 7 6 7 8 11 11 9 9 9 9 8 8 7 7 6 7 6 4 3 2 1 1 3 3 4 7 9 9 10 10 11 11 11 10 11 11 12 12 11 11 12 14 15 16 16 16 18 20 21 22 23 24 25 26 26 26 26
18 17 16 16 17 18 18 18 18 17 15 13 13 16 19 19 17 16 16 15 12 12 13 11 9 10 13 13 9 7 8 10 12 11 9 8 8 7 7 7 6 5 4 5 5 4 3 3 3 5 6 7 8 10 11 12 12 13 13 13 13 13 13 13 13 13 12 12 13 15 17 17 17 18 20 22 24 25 25 26 27 28 28 28 27
19 19 17 16 17 19 18 17 17 17 16 15 14 17 19 17 16 15 15 15 13 12 12 11 9 9 12 13 11 9 9 11 12 12 9 8 7 7 6 6 5 4 4 4 5 5 6 6 6 8 9 9 10 10 11 12 13 14 14 15 15 15 16 16 15 15 15 15 16 17 17 18 19 20 22 24 26 26 27 28 29 29 29 29 28
20 20 18 16 17 18 17 17 18 18 17 16 17 19 19 18 17 16 15 15 14 13 13 12 11 10 11 13 12 10 10 11 12 13 11 10 9 8 8 8 8 8 7 7 7 8 8 8 8 9 9 9 10 11 12 13 14 14 14 14 14 15 16 16 17 17 18 18 18 18 19 20 21 23 25 26 27 28 28 29 30 30 30 30 30
21 21 20 18 19 19 18 18 18 17 17 18 19 20 20 19 19 18 16 16 15 15 15 14 13 11 11 12 12 11 10 10 12 13 13 11 11 11 12 12 12 12 11 11 11 10 10 10 11 12 12 13 13 14 16 16 16 15 14 12 12 13 15 16 18 19 20 21 21 21 22 23 25 26 27 27 28 29 30 31 32 32 32 32 33
22 22 21 20 20 21 20 20 20 19 18 18 20 22 22 22 21 20 19 18 17 16 16 16 15 14 13 12 12 11 11 11 13 13 13 13 12 13 13 14 14 14 13 12 11 11 10 11 12 12 12 14 15 17 18 18 18 17 16 15 14 14 16 17 19 20 22 23 23 24 25 26 27 28 29 30 31 32 32 33 33 34 34 35 35
24 23 22 21 21 22 21 21 21 21 19 18 19 21 23 23 23 23 22 20 20 19 18 17 16 16 15 14 13 12 12 13 13 14 15 15 14 15 15 16 15 15 14 13 12 12 12 12 12 12 13 16 19 20 19 19 18 18 18 17 17 17 18 19 20 21 22 23 24 25 26 28 29 30 31 32 33 33 34 34 34 35 36 37 38
26 25 24 22 21 22 23 22 21 21 20 19 18 19 22 24 24 24 23 21 21 21 21 19 17 16 16 16 16 15 14 14 14 15 16 17 17 17 17 17 17 16 16 15 13 12 13 13 14 15 18 20 21 21 21 21 21 21 20 19 19 19 20 20 21 21 22 24 25 26 28 29 30 32 32 33 33 34 35 35 36 37 38 40 40
27 28 27 25 23 22 22 23 23 22 21 20 19 17 19 22 24 23 22 20 18 19 20 20 19 19 19 18 17 16 15 15 15 16 17 17 18 19 19 18 18 16 14 12 11 12 13 15 17 19 21 21 21 21 22 23 23 23 22 21 21 22 22 23 23 23 24 25 26 28 30 32 33 34 34 34 35 36 36 37 38 39 41 42 42
29 29 28 27 25 23 22 22 24 24 23 23 22 20 18 19 20 21 21 20 19 18 19 20 20 21 21 20 18 17 15 15 15 16 18 19 20 20 19 17 16 14 13 12 13 15 17 19 20 21 22 22 22 22 23 22 22 22 22 23 24 25 25 25 25 25 26 27 29 31 33 34 34 35 35 36 37 38 39 40 41 42 43 43 41
31 32 32 29 27 25 24 23 23 25 25 25 25 24 22 20 20 20 20 21 21 21 20 20 21 23 23 22 20 18 16 15 15 16 18 19 19 18 17 16 16 15 15 17 19 20 22 22 22 22 23 23 23 22 22 22 22 23 24 24 25 26 26 26 26 27 28 30 32 34 35 35 35 36 37 38 39 40 41 42 42 42 41 40 39
Wind_Direction
6 1 360 2 0 356 359 359 344 338 347 351 347 345 349 3 7 359 333 308 277 264 274 284 287 262 194 191 195 207 212 184 170 173 179 181 187 195 191 188 199 207 206 206 208 212 214 210 208 209 209 211 215 220 226 230 234 235 235 235 235 237 240 244 250 250 238 236 250 263 264 262 263 261 259 259 256 254 254 253 253 254 253 254 257
7 2 1 5 1 353 354 355 333 336 352 356 350 353 359 6 8 13 1 342 327 295 272 267 280 287 247 199 186 188 200 204 198 191 189 189 190 192 191 190 201 216 223 223 223 226 226 222 221 222 222 223 221 221 226 231 235 234 232 233 236 236 236 240 251 258 253 246 253 263 265 266 269 268 266 263 260 260 259 256 256 257 258 260 261
7 0 359 3 359 350 349 354 337 343 357 7 39 44 47 38 33 29 5 349 346 339 312 280 264 271 277 240 202 190 188 196 206 208 205 201 202 202 195 191 197 209 220 226 230 235 234 230 227 226 229 234 234 233 234 233 232 231 226 227 233 235 233 238 249 259 265 264 263 263 260 263 268 270 271 268 265 263 259 253 253 256 258 262 264
3 354 353 358 358 351 351 358 342 345 11 64 81 67 45 36 49 34 352 350 356 353 343 324 286 267 276 270 235 208 193 189 195 210 216 217 221 215 199 195 198 202 212 221 226 232 236 235 232 228 233 246 248 242 238 233 228 226 225 227 232 234 234 244 254 260 267 270 270 269 266 266 267 268 270 270 269 267 262 254 251 253 255 258 260
357 345 347 356 360 355 345 346 347 357 49 73 74 68 15 13 26 13 345 345 345 343 337 326 309 285 278 271 258 237 216 204 196 203 216 223 231 230 214 209 208 202 206 216 221 228 235 240 240 237 240 252 260 245 235 232 228 224 229 233 235 236 238 247 255 258 262 266 269 271 269 266 265 265 265 264 265 267 264 258 253 253 255 256 258
349 337 341 352 359 355 331 340 9 66 75 65 53 47 29 7 1 345 335 337 335 332 324 315 310 293 276 266 258 248 235 226 214 212 222 228 233 235 233 233 223 207 205 210 215 224 233 239 242 241 240 243 245 231 221 222 226 228 233 237 236 238 242 246 252 257 260 263 266 267 264 260 261 261 261 260 259 260 261 258 255 255 258 262 264
337 333 339 350 359 354 316 344 33 84 74 54 38 29 20 2 352 336 325 324 321 317 310 297 287 276 264 254 250 246 236 230 226 231 241 253 251 240 241 244 233 214 212 213 210 214 224 232 236 236 236 232 225 213 204 200 207 219 227 232 234 236 239 243 250 259 263 264 266 265 261 258 257 258 257 256 257 257 256 255 255 257 262 269 271
331 334 338 348 360 358 285 342 37 89 72 43 26 8 358 352 346 334 325 324 320 318 317 305 286 263 247 243 245 245 239 233 231 239 246 256 262 250 242 243 236 229 228 223 213 214 221 227 230 229 231 232 227 218 211 203 189 196 217 227 234 239 241 245 254 262 263 264 266 266 264 262 261 259 257 256 255 254 252 253 257 261 265 269 271
327 332 338 348 360 359 251 293 39 98 80 48 22 358 351 341 333 327 325 329 330 331 341 347 335 290 252 240 239 247 249 244 241 245 253 259 263 256 241 236 236 234 232 229 224 221 220 224 230 231 229 231 230 224 217 213 208 214 234 239 251 262 262 260 261 263 263 263 263 264 264 264 264 262 262 260 259 257 255 256 260 263 265 265 265
324 330 337 348 360 353 246 245 88 97 76 49 11 346 333 322 324 331 334 339 352 2 8 14 12 354 314 255 237 256 271 271 265 257 255 257 258 256 245 234 233 233 231 230 232 233 230 230 233 234 231 230 231 230 224 217 219 234 252 260 269 279 279 274 267 263 262 261 260 260 260 260 262 264 265 266 265 263 261 260 261 262 264 265 264
327 334 343 352 358 339 233 225 129 82 71 45 356 326 312 314 330 355 355 356 20 30 23 24 31 27 12 345 219 260 271 272 282 280 268 261 255 252 246 236 229 232 233 232 236 239 240 239 237 234 231 228 228 232 233 229 231 241 254 262 268 274 276 273 268 263 261 260 258 258 258 260 262 264 267 269 268 266 264 262 263 264 265 268 268
333 344 357 357 348 198 200 225 225 112 80 41 356 338 327 336 9 35 12 14 28 23 7 8 21 33 35 43 63 24 309 284 298 294 278 268 259 254 249 239 229 226 227 232 238 242 244 245 241 231 223 218 214 220 229 233 237 244 250 256 261 265 266 265 262 260 259 258 259 259 261 262 261 260 263 267 265 262 260 258 261 264 265 265 267
341 357 7 4 346 191 195 218 210 206 248 269 3 17 359 4 34 45 28 28 27 19 6 350 347 349 358 3 356 331 313 304 292 276 268 263 257 254 251 244 234 224 217 216 226 236 240 243 240 227 214 205 198 200 210 218 227 234 240 247 253 255 253 254 255 255 255 257 259 259 259 260 260 258 260 262 262 260 258 255 256 261 263 265 265
359 6 12 13 10 239 225 228 197 214 249 249 292 346 1 20 21 25 36 31 21 20 22 16 5 342 319 322 321 309 301 296 285 270 262 257 254 253 252 249 238 221 215 213 211 217 220 218 219 221 214 202 195 195 198 200 208 219 228 239 245 245 242 244 250 254 257 259 261 261 261 262 263 263 264 265 266 266 264 262 260 262 265 267 267
11 8 7 10 13 10 241 242 226 215 228 233 278 296 296 339 346 3 33 22 17 20 21 27 35 37 30 4 334 321 319 320 320 304 276 254 248 248 245 244 232 215 211 213 213 211 206 207 215 225 229 208 197 202 207 206 207 211 218 228 232 230 232 240 247 254 258 260 263 265 267 266 266 268 269 269 270 270 271 270 269 270 272 274 273
4 1 360 1 7 11 258 237 237 233 242 250 270 284 283 281 293 7 28 17 15 15 17 32 47 58 68 62 43 27 16 14 22 29 56 142 178 210 209 216 218 210 207 209 213 215 210 212 223 233 247 238 200 203 214 216 212 209 215 226 224 218 227 243 252 258 263 265 268 270 270 268 266 267 268 270 271 272 272 272 274 275 276 277 278
347 344 352 2 6 7 337 227 234 257 264 262 261 272 284 234 174 57 25 16 9 6 21 43 49 55 62 53 41 33 24 26 39 54 102 130 130 134 145 145 165 186 196 201 208 214 215 220 234 245 254 255 235 224 227 227 220 214 220 233 234 229 237 249 256 262 266 270 272 272 271 269 267 267 269 271 272 273 274 275 275 275 274 274 274
345 334 359 14 16 14 6 223 184 81 76 151 134 99 99 136 137 70 24 13 7 16 49 58 49 50 55 44 33 26 20 26 45 72 125 143 143 140 145 147 144 154 172 187 199 207 211 220 236 251 258 257 250 246 244 243 242 238 236 241 244 246 250 255 259 264 267 270 271 272 272 271 268 265 265 266 266 268 270 273 274 274 272 269 268
346 3 30 32 36 50 77 96 97 96 98 107 106 91 100 125 113 71 48 32 32 53 70 68 55 51 52 40 28 23 20 29 46 78 134 156 160 153 149 154 156 160 168 174 181 190 199 210 223 233 242 244 244 247 248 247 246 246 246 247 249 253 257 260 263 265 266 267 266 266 267 267 265 261 257 255 256 259 260 262 264 265 263 261 262
341 39 55 48 48 58 78 91 96 96 92 94 90 73 101 136 134 109 91 77 67 72 77 78 63 45 42 34 24 20 25 40 51 73 126 160 174 175 171 174 179 182 179 176 176 180 188 202 217 230 243 250 253 254 254 254 252 251 251 251 254 257 259 261 263 263 263 262 261 261 260 261 261 259 254 250 249 251 254 256 257 257 257 259 262
346 40 50 52 50 47 53 60 67 76 80 86 71 36 25 154 171 178 156 136 126 105 94 96 70 30 28 21 16 19 36 51 56 70 98 148 176 187 195 199 203 206 203 197 194 192 198 221 245 264 269 267 267 265 263 262 261 258 256 254 253 252 252 255 258 260 263 263 262 260 257 256 256 253 249 245 242 242 246 250 254 257 260 264 267
342 28 19 21 45 53 42 26 13 13 38 140 86 24 342 297 223 184 166 147 135 125 124 140 142 9 9 6 10 25 45 53 58 70 83 118 157 176 192 198 202 208 208 201 195 190 179 147 34 8 339 315 300 289 284 278 265 253 242 227 212 209 221 239 243 244 258 269 257 248 241 240 242 240 238 236 234 235 239 243 249 256 263 270 275
258 314 348 357 11 67 39 20 6 356 305 171 133 335 287 280 316 94 156 148 143 146 156 174 200 263 340 354 12 34 50 55 62 71 85 114 138 152 167 172 168 170 175 163 144 127 112 102 91 81 72 62 56 63 68 69 75 88 101 111 117 129 136 121 132 152 140 93 100 133 154 151 132 188 242 246 239 238 241 244 248 254 261 269 274
260 278 296 328 345 54 23 25 25 7 327 257 300 306 256 246 309 67 157 157 154 162 174 188 197 211 333 356 20 42 54 64 75 84 97 114 125 130 133 134 132 130 128 120 114 113 112 108 101 96 91 86 82 81 79 77 78 81 85 90 96 107 120 120 119 130 135 120 102 89 85 86 72 44 343 296 286 276 272 269 263 259 260 264 268
274 288 266 293 315 192 9 25 23 6 339 296 298 302 231 214 204 111 145 154 148 149 157 166 175 200 352 10 34 50 65 82 93 99 103 108 112 115 115 115 116 117 116 113 111 111 112 111 107 102 97 92 88 85 84 83 84 85 86 89 96 107 117 127 133 134 129 121 111 97 86 82 71 48 22 326 301 288 280 279 277 269 265 264 266
246 284 269 256 179 180 132 46 28 18 16 3 333 325 192 197 188 143 133 137 133 134 142 148 149 18 11 31 53 71 90 101 103 104 105 106 108 109 110 110 112 114 114 113 110 107 106 106 104 102 101 98 94 89 87 87 88 90 90 91 98 107 112 117 120 118 109 99 93 88 81 74 67 53 32 347 303 281 263 260 264 255 245 245 252
232 249 232 186 166 176 120 41 24 17 23 30 36 64 150 185 192 185 166 148 141 136 140 157 151 8 31 61 84 100 106 106 104 104 105 105 106 108 108 107 105 104 105 105 102 99 98 97 96 98 101 101 96 90 88 88 90 91 88 85 85 89 92 97 99 98 92 84 81 81 79 77 79 74 56 37 28 41 59 59 63 141 179 224 238
232 220 197 176 156 159 165 28 34 24 22 27 34 56 106 160 192 205 207 201 199 209 220 222 231 37 84 100 110 115 113 108 105 105 105 103 102 103 102 102 101 99 98 97 97 98 99 97 96 96 97 98 96 94 91 89 88 88 86 83 81 81 83 88 93 92 87 81 81 84 86 88 89 82 68 55 50 51 46 39 36 40 37 9 291
228 209 201 198 176 164 180 43 43 33 26 23 27 47 83 113 146 178 190 188 182 175 164 159 153 138 121 117 120 121 117 113 111 111 109 106 103 100 100 100 101 101 100 99 101 104 105 104 102 99 95 93 94 96 94 90 86 86 85 83 81 83 87 89 89 87 85 82 84 84 81 78 75 73 70 65 55 47 38 32 29 26 19 5 352
215 200 204 213 204 197 209 218 25 26 30 27 26 41 74 96 106 114 126 135 135 131 129 129 129 126 121 120 125 126 124 121 121 119 115 111 107 104 101 101 101 101 101 103 107 109 106 103 100 96 93 90 89 91 94 92 88 85 84 82 79 79 82 82 78 76 75 72 70 69 66 62 59 56 54 54 50 42 35 32 31 26 21 17 13
196 193 200 216 215 213 221 221 219 266 5 30 32 46 71 92 101 106 111 117 119 119 121 124 124 122 118 116 117 118 119 122 124 123 121 118 113 109 105 102 101 100 101 104 105 103 99 95 92 90 90 88 84 83 85 87 85 82 81 80 77 73 74 75 72 68 66 63 60 58 56 52 49 45 41 41 40 35 31 28 26 24 22 19 15
193 192 206 223 213 207 211 210 204 216 228 207 63 63 74 87 99 107 111 114 115 116 118 120 121 119 115 113 111 111 112 113 114 116 117 115 113 110 106 101 96 92 92 95 95 93 90 88 86 85 85 84 81 79 78 79 79 77 76 77 75 71 69 70 68 65 63 60 56 54 52 50 47 44 40 37 34 30 26 22 22 21 18 15 12
199 198 208 214 204 201 210 214 207 203 201 187 145 116 98 88 95 107 114 115 116 116 115 116 117 117 114 113 113 114 115 115 116 116 113 110 108 108 106 104 99 90 82 81 86 87 85 82 80 79 78 77 75 73 71 71 69 67 66 67 66 63 61 60 58 56 54 51 47 46 45 43 41 39 36 33 29 26 21 19 19 17 13 9 8
205 203 197 193 190 194 204 207 200 195 194 189 166 154 149 130 108 110 115 116 116 118 117 115 115 115 115 115 119 122 124 124 123 123 121 118 115 112 109 109 108 101 88 79 81 83 80 75 74 73 72 70 66 62 61 61 58 55 55 55 54 51 46 39 34 34 34 31 30 31 32 30 28 27 26 24 21 17 14 13 11 9 8 7 5
214 207 199 194 192 192 193 193 195 200 207 209 202 184 172 164 151 136 130 125 120 119 118 117 118 120 117 115 117 122 129 134 134 132 131 130 126 120 114 110 109 110 103 86 74 69 66 65 64 64 64 65 62 58 55 52 45 36 32 31 30 29 25 19 17 18 17 15 14 15 16 17 19 19 18 16 13 9 7 7 4 1 360 358 356
225 216 209 208 205 201 199 200 204 208 210 209 208 204 194 180 170 163 161 161 153 137 124 121 124 126 121 116 117 119 124 134 142 142 141 140 136 129 117 103 101 104 100 86 74 68 65 62 59 58 60 62 61 56 50 46 41 34 31 30 30 29 27 23 20 18 16 15 14 13 11 14 20 23 19 15 12 9 7 5 3 0 357 354 351
232 231 225 221 217 213 210 211 211 209 208 208 207 204 199 191 184 180 181 186 185 179 168 152 141 135 128 124 130 134 132 135 141 146 148 148 142 132 117 103 101 102 97 88 80 74 69 66 61 57 56 55 52 48 42 37 34 33 34 34 35 33 30 27 24 23 22 21 20 18 14 13 15 16 16 14 11 8 5 3 1 360 357 354 351
234 244 241 225 214 211 211 211 210 208 209 214 212 204 198 196 195 194 199 204 200 198 197 191 181 167 148 133 135 148 154 153 152 152 154 152 146 139 131 117 110 107 102 94 90 84 77 71 65 58 53 50 49 47 40 32 28 27 26 26 26 25 22 18 16 15 15 15 13 9 5 360 358 358 2 3 2 1 1 359 357 355 354 352 350
232 244 241 215 198 202 212 212 210 209 211 215 217 213 210 210 206 205 207 207 204 202 203 204 208 206 188 161 144 145 151 160 165 166 165 160 151 147 146 143 142 138 120 108 107 106 95 84 77 69 61 55 53 46 35 26 22 19 15 13 11 10 7 4 1 1 2 1 358 354 351 348 347 349 350 351 352 352 353 353 353 351 351 349 347
231 238 235 213 199 206 215 212 211 213 214 217 222 222 218 210 203 201 205 206 203 207 213 215 218 219 210 195 171 147 144 160 172 175 177 177 174 175 182 194 200 190 170 154 146 136 122 110 101 82 65 60 52 30 15 13 10 3 358 355 352 353 356 355 352 352 354 352 347 341 339 338 339 341 341 342 343 345 346 347 347 347 346 345 343
231 233 235 223 211 209 211 210 213 217 218 223 229 223 213 205 199 199 204 208 213 221 227 226 226 222 215 206 186 153 151 167 175 181 190 197 196 199 202 202 203 203 195 190 191 189 179 168 143 28 15 15 358 341 339 340 338 334 332 330 328 330 334 336 336 337 341 341 334 328 327 328 329 330 331 333 337 339 340 341 341 340 340 340 339
232 231 234 229 217 211 211 214 217 219 219 223 223 211 201 200 204 205 206 210 218 227 228 224 221 213 207 203 189 162 160 169 175 184 199 204 198 200 208 209 213 225 227 220 230 250 262 265 288 309 314 314 315 318 322 323 322 320 318 316 315 317 318 320 321 323 324 323 319 317 319 321 322 323 325 328 331 333 334 335 335 335 336 337 337
233 232 234 231 221 216 217 221 224 227 227 220 207 197 196 201 207 209 209 213 219 223 224 224 222 211 202 199 192 177 173 178 182 191 207 215 211 210 218 220 223 238 247 245 256 275 280 281 292 302 304 304 306 311 316 317 315 312 308 306 307 310 312 313 315 315 315 315 314 314 316 317 317 318 321 323 325 327 329 330 331 333 334 334 335
232 232 232 226 217 213 217 221 224 231 234 223 207 200 203 208 210 211 214 217 219 220 223 226 228 220 207 200 196 190 187 190 194 203 217 229 231 228 225 224 231 244 254 260 268 276 280 284 293 301 303 302 303 305 307 308 307 305 302 303 309 316 319 320 319 318 317 317 317 316 315 314 314 315 317 319 321 323 325 327 329 330 331 330 330
233 231 229 222 215 214 219 222 223 227 232 230 221 214 211 212 213 216 219 222 222 222 224 226 229 228 217 208 206 208 209 206 206 211 221 232 238 236 233 236 245 256 263 267 269 271 274 280 287 292 293 293 294 294 295 297 299 300 301 305 313 321 325 326 324 323 322 321 319 318 316 315 315 316 316 318 320 321 323 324 325 326 327 327 326
233 232 230 227 222 220 224 228 229 229 231 232 229 224 220 218 217 218 221 224 225 225 225 226 229 230 226 221 222 224 223 220 218 220 226 234 237 238 242 249 256 261 265 267 267 268 274 282 289 292 291 290 288 288 289 292 295 299 302 304 306 309 314 317 318 319 319 317 316 315 314 314 314 314 314 315 317 317 319 320 321 322 323 323 322
234 233 234 235 232 229 228 230 230 229 229 232 232 229 225 223 221 220 223 226 228 228 228 227 228 229 229 230 230 229 228 229 228 227 230 235 237 241 249 255 259 262 264 265 267 273 282 288 291 293 294 293 291 291 292 293 295 298 299 299 297 298 302 305 306 308 310 310 310 311 311 311 311 310 310 311 313 313 315 316 317 318 319 319 319
234 234 235 237 237 234 230 229 228 228 229 233 234 231 227 224 221 220 223 227 230 231 229 228 230 234 237 238 237 234 234 237 235 230 232 238 242 245 248 251 253 257 259 262 268 277 284 288 291 295 296 294 291 291 292 293 294 295 294 292 290 290 293 295 296 298 300 302 305 307 308 308 309 308 308 309 310 310 311 312 313 314 315 315 316
235 235 235 236 238 237 234 232 232 233 234 235 235 233 230 226 222 220 222 228 232 231 228 228 233 239 244 245 243 240 239 240 237 235 240 245 244 242 242 244 246 249 252 258 266 275 280 286 292 296 295 291 287 286 288 289 290 289 288 287 285 286 289 290 292 294 296 299 302 305 306 307 307 306 307 307 308 308 309 309 310 310 311 312 312
234 235 235 234 235 237 237 234 233 234 237 239 238 236 234 231 228 226 226 229 232 233 232 234 238 243 245 245 241 237 237 241 245 249 253 250 242 237 236 237 237 238 243 252 262 271 278 286 290 290 287 285 283 283 284 284 282 281 280 280 281 283 286 288 289 292 295 299 302 304 305 305 305 304 305 305 305 305 306 306 307 308 309 310 310
234 235 235 234 235 237 238 237 234 233 233 235 237 238 238 237 236 234 232 233 236 238 240 243 246 247 245 241 236 236 242 249 251 249 243 234 227 224 224 224 227 233 244 255 265 273 280 285 286 284 281 280 278 277 278 277 276 275 275 277 279 281 283 286 290 294 298 301 303 304 304 303 303 303 303 303 303 303 304 304 305 307 308 308 309
Height
1528 1528 1527 1525 1524 1523 1522 1521 1520 1519 1518 1517 1517 1516 1515 1514 1514 1513 1512 1512 1512 1512 1512 1512 1512 1511 1510 1510 1510 1511 1512 1512 1513 1514 1514 1515 1516 1518 1519 1520 1522 1523 1524 1525 1527 1527 1528 1529 1530 1530 1531 1532 1534 1536 1537 1538 1538 1539 1539 1540 1541 1543 1545 1545 1546 1547 1548 1549 1550 1550 1551 1551 1551 1551 1552 1553 1553 1554 1555 1556 1557 1557 1558 1558 1559
1528 1527 1526 1525 1524 1522 1521 1520 1519 1519 1518 1517 1517 1516 1515 1514 1514 1513 1513 1512 1511 1511 1511 1511 1511 1511 1510 1509 1510 1510 1511 1512 1513 1513 1514 1514 1515 1516 1517 1519 1520 1522 1523 1525 1526 1527 1527 1528 1528 1529 1530 1531 1532 1533 1534 1535 1536 1537 1537 1538 1539 1541 1542 1543 1545 1546 1547 1547 1548 1549 1549 1550 1550 1550 1550 1551 1552 1552 1553 1553 1554 1555 1556 1556 1557
1527 1527 1526 1524 1523 1522 1521 1520 1519 1518 1517 1517 1516 1515 1515 1514 1514 1513 1513 1512 1511 1511 1511 1511 1511 1510 1510 1510 1509 1509 1510 1511 1512 1513 1513 1514 1514 1515 1516 1517 1519 1520 1522 1524 1525 1526 1527 1527 1527 1528 1528 1529 1530 1531 1531 1532 1534 1534 1535 1536 1537 1538 1539 1541 1543 1544 1544 1545 1546 1547 1547 1548 1548 1548 1548 1549 1550 1550 1551 1551 1552 1552 1553 1554 1555
1526 1526 1525 1524 1522 1521 1520 1519 1519 1518 1517 1516 1515 1515 1515 1514 1514 1514 1513 1512 1512 1511 1511 1510 1510 1510 1510 1510 1510 1510 1510 1510 1510 1511 1512 1512 1513 1514 1515 1516 1517 1518 1519 1521 1523 1524 1525 1526 1526 1527 1527 1528 1528 1528 1529 1530 1531 1532 1532 1533 1534 1535 1536 1538 1540 1542 1542 1542 1543 1545 1545 1545 1546 1546 1547 1547 1548 1548 1548 1549 1549 1549 1550 1551 1552
1526 1526 1525 1524 1522 1521 1520 1519 1518 1518 1517 1516 1515 1515 1515 1515 1514 1514 1513 1513 1512 1511 1511 1510 1510 1510 1510 1509 1509 1509 1509 1509 1510 1511 1511 1511 1512 1513 1514 1515 1515 1515 1517 1518 1520 1522 1523 1524 1525 1525 1526 1526 1526 1526 1526 1527 1528 1529 1530 1531 1532 1533 1534 1536 1538 1540 1540 1540 1541 1542 1543 1543 1543 1544 1544 1545 1546 1546 1546 1546 1546 1546 1547 1548 1549
1526 1525 1524 1523 1522 1521 1520 1519 1518 1517 1517 1516 1515 1515 1515 1515 1514 1514 1513 1512 1512 1511 1510 1510 1509 1509 1509 1509 1509 1509 1509 1509 1510 1510 1511 1511 1511 1512 1512 1513 1514 1515 1515 1517 1518 1520 1521 1522 1523 1524 1524 1525 1525 1524 1524 1524 1526 1527 1528 1529 1530 1531 1532 1535 1536 1537 1538 1538 1539 1539 1540 1540 1541 1541 1542 1542 1543 1544 1544 1544 1544 1544 1544 1544 1545
1525 1525 1524 1523 1522 1520 1520 1519 1518 1517 1517 1516 1515 1515 1515 1515 1514 1513 1513 1512 1511 1510 1509 1509 1509 1508 1508 1508 1508 1509 1509 1509 1509 1510 1510 1510 1510 1510 1511 1512 1513 1514 1514 1515 1516 1517 1519 1520 1521 1522 1523 1523 1524 1523 1522 1523 1524 1526 1527 1528 1529 1530 1531 1533 1534 1535 1536 1536 1537 1537 1538 1538 1539 1539 1539 1540 1540 1541 1542 1542 1542 1542 1541 1542 1542
1524 1524 1523 1522 1521 1520 1519 1519 1518 1517 1516 1515 1515 1515 1515 1514 1514 1513 1512 1511 1510 1509 1508 1507 1507 1507 1507 1507 1507 1508 1508 1508 1509 1509 1509 1509 1509 1510 1510 1510 1512 1512 1513 1513 1514 1515 1516 1518 1519 1520 1521 1522 1522 1522 1522 1523 1523 1524 1526 1527 1528 1529 1530 1531 1532 1533 1533 1534 1535 1536 1536 1536 1536 1537 1538 1538 1538 1538 1539 1539 1539 1539 1539 1539 1539
1524 1523 1523 1521 1521 1519 1519 1519 1518 1517 1516 1515 1515 1515 1514 1513 1513 1512 1511 1510 1509 1508 1507 1506 1506 1506 1506 1506 1506 1507 1507 1507 1508 1508 1508 1508 1508 1509 1509 1510 1510 1511 1511 1511 1512 1512 1513 1514 1516 1517 1518 1519 1520 1521 1521 1522 1523 1523 1524 1525 1526 1527 1528 1529 1530 1531 1532 1532 1533 1534 1534 1534 1535 1535 1536 1536 1536 1536 1536 1536 1536 1536 1536 1536 1537
1523 1523 1522 1521 1520 1519 1518 1518 1518 1517 1516 1515 1515 1515 1514 1513 1513 1512 1511 1510 1509 1508 1507 1507 1506 1505 1505 1505 1506 1506 1506 1506 1507 1507 1507 1507 1507 1507 1508 1508 1509 1509 1510 1510 1510 1510 1510 1511 1512 1514 1515 1516 1518 1519 1520 1521 1521 1522 1523 1523 1524 1524 1525 1527 1528 1529 1530 1530 1531 1531 1532 1532 1533 1533 1533 1534 1533 1533 1533 1533 1533 1533 1533 1533 1534
1523 1522 1521 1520 1519 1518 1518 1518 1517 1516 1516 1515 1515 1515 1514 1513 1512 1512 1511 1510 1509 1509 1508 1507 1506 1505 1505 1505 1505 1505 1505 1506 1506 1506 1506 1506 1506 1506 1506 1507 1507 1508 1508 1508 1508 1508 1509 1509 1510 1511 1512 1513 1515 1517 1517 1518 1519 1520 1521 1521 1522 1522 1523 1525 1526 1527 1528 1528 1529 1530 1530 1531 1531 1531 1531 1531 1531 1531 1530 1530 1530 1530 1531 1531 1532
1522 1522 1520 1519 1518 1518 1518 1517 1517 1516 1515 1515 1515 1515 1514 1513 1512 1512 1511 1510 1509 1509 1508 1507 1506 1505 1505 1505 1505 1505 1505 1505 1505 1505 1505 1505 1505 1505 1505 1505 1506 1506 1507 1507 1507 1507 1507 1508 1508 1509 1510 1511 1512 1513 1514 1515 1517 1518 1519 1519 1520 1521 1522 1523 1524 1525 1526 1527 1527 1528 1528 1528 1529 1529 1528 1528 1528 1528 1528 1527 1527 1527 1528 1529 1529
1522 1521 1520 1519 1518 1517 1517 1517 1516 1516 1515 1515 1515 1514 1514 1513 1512 1512 1511 1510 1510 1509 1508 1507 1506 1505 1505 1504 1504 1504 1504 1504 1504 1504 1504 1504 1504 1504 1504 1504 1504 1505 1505 1505 1505 1505 1506 1506 1507 1507 1508 1509 1510 1511 1512 1513 1514 1516 1517 1517 1518 1519 1520 1521 1522 1522 1523 1524 1525 1525 1526 1525 1526 1526 1525 1525 1525 1525 1524 1524 1524 1525 1526 1526 1527
1522 1521 1519 1519 1518 1517 1517 1516 1516 1515 1515 1515 1515 1514 1514 1513 1512 1512 1511 1511 1510 1509 1508 1507 1506 1505 1504 1504 1504 1504 1503 1503 1503 1503 1503 1502 1502 1502 1502 1502 1503 1503 1503 1504 1504 1505 1505 1506 1507 1507 1508 1508 1508 1509 1510 1511 1512 1514 1515 1516 1517 1517 1518 1519 1520 1520 1521 1522 1523 1523 1523 1523 1523 1523 1523 1523 1522 1522 1522 1522 1522 1522 1523 1523 1524
1522 1521 1520 1519 1518 1517 1516 1516 1515 1515 1515 1515 1514 1514 1514 1513 1513 1512 1511 1511 1510 1509 1508 1508 1506 1505 1504 1504 1504 1504 1503 1502 1501 1501 1500 1500 1500 1500 1500 1501 1501 1501 1502 1503 1504 1505 1506 1506 1507 1507 1508 1508 1508 1508 1509 1510 1511 1512 1513 1514 1515 1516 1517 1518 1519 1519 1520 1520 1521 1521 1522 1522 1521 1521 1521 1521 1520 1520 1520 1520 1520 1521 1521 1521 1522
1522 1521 1520 1519 1518 1517 1516 1515 1515 1515 1515 1514 1514 1514 1513 1513 1513 1512 1511 1511 1510 1509 1509 1508 1507 1505 1505 1505 1504 1504 1503 1502 1501 1500 1499 1499 1499 1500 1500 1500 1500 1500 1501 1503 1504 1505 1505 1506 1507 1507 1508 1508 1508 1508 1508 1508 1510 1511 1512 1513 1514 1515 1516 1517 1518 1518 1519 1519 1519 1520 1520 1520 1519 1519 1519 1519 1519 1519 1519 1519 1519 1519 1519 1519 1519
1521 1521 1520 1519 1518 1516 1516 1515 1515 1514 1514 1514 1513 1513 1513 1513 1512 1512 1511 1511 1510 1509 1509 1509 1507 1506 1506 1505 1504 1503 1502 1501 1501 1500 1500 1500 1500 1501 1501 1501 1501 1501 1502 1503 1504 1504 1505 1505 1506 1507 1507 1508 1508 1508 1508 1508 1509 1511 1511 1512 1513 1514 1515 1516 1516 1517 1517 1517 1517 1517 1517 1517 1517 1517 1516 1517 1517 1517 1517 1517 1517 1517 1516 1516 1517
1521 1521 1521 1520 1518 1516 1515 1515 1515 1514 1514 1513 1513 1513 1513 1513 1512 1512 1512 1511 1510 1510 1509 1509 1508 1507 1506 1505 1504 1503 1502 1502 1501 1501 1500 1501 1501 1501 1502 1502 1502 1502 1502 1503 1504 1504 1504 1505 1506 1506 1507 1507 1507 1507 1508 1508 1509 1510 1510 1511 1512 1512 1513 1514 1514 1515 1515 1515 1514 1514 1514 1514 1514 1515 1514 1514 1515 1515 1516 1515 1515 1514 1515 1515 1515
1521 1521 1521 1520 1518 1517 1516 1516 1515 1515 1514 1514 1513 1513 1513 1513 1512 1512 1512 1511 1510 1510 1509 1509 1509 1508 1507 1506 1505 1504 1503 1502 1501 1501 1501 1501 1502 1502 1503 1503 1503 1503 1503 1503 1504 1504 1504 1505 1506 1506 1506 1506 1506 1506 1507 1507 1508 1508 1509 1509 1510 1510 1511 1511 1512 1512 1512 1512 1511 1511 1511 1511 1511 1512 1512 1512 1513 1513 1514 1513 1513 1513 1513 1514 1513
1521 1521 1521 1520 1520 1518 1517 1517 1516 1516 1515 1515 1514 1513 1513 1512 1512 1512 1511 1511 1511 1510 1510 1510 1509 1508 1507 1506 1505 1504 1503 1502 1501 1501 1501 1501 1502 1502 1503 1503 1503 1503 1503 1504 1504 1504 1504 1505 1505 1505 1505 1505 1505 1505 1505 1506 1506 1507 1507 1507 1508 1508 1509 1509 1509 1509 1509 1509 1509 1508 1508 1508 1508 1509 1509 1510 1511 1511 1512 1511 1512 1512 1512 1512 1512
1521 1521 1521 1520 1520 1519 1518 1518 1517 1517 1516 1515 1514 1514 1513 1512 1512 1511 1511 1511 1510 1510 1510 1510 1509 1508 1507 1507 1506 1505 1503 1502 1501 1501 1501 1501 1502 1502 1502 1502 1502 1503 1503 1504 1504 1504 1504 1504 1504 1504 1504 1504 1504 1504 1504 1505 1505 1505 1506 1506 1506 1506 1507 1507 1507 1507 1507 1507 1506 1506 1506 1505 1506 1506 1507 1508 1508 1509 1509 1509 1510 1510 1511 1511 1510
1521 1521 1521 1520 1520 1519 1519 1518 1518 1517 1516 1515 1514 1514 1513 1512 1512 1511 1511 1511 1510 1510 1510 1510 1510 1509 1508 1507 1506 1505 1504 1503 1502 1501 1501 1501 1502 1502 1502 1502 1502 1503 1503 1504 1504 1504 1504 1504 1504 1504 1504 1503 1503 1503 1503 1503 1504 1504 1504 1505 1505 1505 1505 1505 1506 1506 1505 1505 1504 1504 1504 1504 1505 1505 1505 1506 1506 1506 1507 1507 1508 1508 1509 1509 1508
1521 1521 1521 1520 1520 1520 1519 1518 1518 1517 1516 1515 1515 1514 1513 1513 1512 1511 1511 1510 1510 1510 1510 1510 1510 1509 1508 1508 1507 1505 1504 1503 1503 1502 1502 1502 1502 1502 1502 1502 1503 1504 1504 1504 1504 1504 1504 1504 1504 1504 1504 1503 1503 1503 1503 1503 1503 1503 1504 1504 1504 1504 1505 1505 1505 1505 1505 1504 1504 1504 1504 1504 1504 1504 1505 1505 1505 1505 1505 1505 1506 1507 1507 1506 1506
1521 1521 1520 1520 1520 1520 1519 1518 1518 1517 1516 1515 1515 1514 1513 1513 1512 1511 1511 1511 1510 1510 1510 1510 1510 1509 1509 1508 1507 1505 1505 1504 1504 1503 1503 1503 1503 1503 1503 1504 1504 1505 1505 1504 1504 1505 1505 1505 1505 1505 1505 1504 1504 1504 1503 1504 1504 1504 1504 1504 1504 1504 1504 1505 1505 1505 1504 1504 1504 1504 1503 1503 1503 1503 1503 1503 1503 1503 1504 1504 1504 1505 1505 1504 1504
1521 1520 1520 1520 1520 1520 1519 1519 1518 1517 1516 1515 1514 1513 1513 1512 1512 1511 1511 1511 1511 1511 1510 1510 1510 1510 1509 1508 1507 1506 1505 1505 1505 1505 1505 1505 1505 1505 1505 1506 1506 1506 1506 1506 1506 1506 1506 1506 1506 1506 1506 1506 1506 1505 1505 1505 1505 1505 1505 1505 1505 1505 1505 1505 1505 1504 1504 1504 1504 1504 1503 1503 1503 1503 1503 1503 1503 1503 1503 1503 1503 1503 1503 1503 1502
1520 1520 1520 1520 1520 1520 1519 1519 1518 1517 1516 1514 1513 1512 1512 1512 1512 1512 1511 1511 1511 1511 1511 1511 1511 1510 1509 1508 1507 1507 1506 1506 1507 1507 1507 1507 1507 1507 1508 1508 1508 1508 1508 1507 1507 1507 1507 1507 1507 1507 1507 1507 1507 1507 1507 1507 1507 1507 1507 1507 1506 1506 1506 1506 1505 1505 1505 1504 1504 1504 1504 1504 1504 1503 1503 1503 1503 1503 1502 1502 1502 1502 1502 1501 1501
1520 1520 1520 1520 1520 1520 1520 1519 1519 1518 1516 1515 1513 1512 1512 1512 1512 1512 1512 1512 1512 1512 1512 1511 1511 1511 1510 1509 1509 1508 1508 1508 1509 1509 1509 1509 1509 1509 1509 1509 1509 1509 1509 1509 1509 1509 1509 1509 1509 1509 1509 1509 1509 1509 1509 1509 1509 1508 1508 1508 1508 1507 1507 1507 1506 1506 1506 1505 1505 1505 1505 1505 1505 1504 1504 1503 1503 1502 1502 1502 1501 1501 1501 1500 1500
1519 1519 1520 1520 1520 1520 1520 1520 1519 1518 1517 1516 1514 1513 1512 1512 1512 1512 1512 1512 1512 1512 1512 1512 1512 1511 1511 1511 1511 1510 1510 1510 1511 1511 1511 1511 1511 1511 1511 1511 1511 1511 1511 1511 1511 1511 1511 1511 1511 1511 1511 1510 1510 1510 1510 1510 1510 1510 1510 1509 1509 1509 1509 1508 1508 1507 1507 1507 1507 1506 1506 1506 1505 1505 1504 1504 1503 1502 1502 1501 1501 1500 1500 1499 1499
1518 1519 1519 1519 1520 1520 1520 1520 1519 1519 1518 1517 1516 1514 1513 1512 1512 1512 1512 1512 1512 1513 1512 1512 1512 1512 1512 1512 1512 1512 1512 1513 1513 1513 1513 1513 1513 1513 1513 1513 1513 1513 1512 1512 1512 1512 1512 1512 1512 1512 1512 1512 1512 1512 1512 1512 1512 1511 1511 1511 1511 1511 1510 1510 1509 1509 1508 1508 1508 1507 1507 1506 1506 1505 1505 1504 1503 1502 1502 1501 1501 1500 1499 1499 1498
1517 1518 1518 1519 1519 1519 1520 1520 1520 1519 1519 1518 1517 1516 1514 1513 1513 1512 1512 1513 1513 1513 1513 1513 1513 1513 1513 1514 1514 1514 1514 1514 1515 1515 1515 1515 1515 1515 1515 1515 1515 1515 1515 1514 1514 1514 1514 1514 1514 1514 1514 1514 1513 1513 1514 1514 1514 1513 1513 1513 1513 1512 1512 1511 1510 1510 1510 1509 1509 1508 1507 1507 1506 1505 1505 1504 1503 1503 1502 1502 1501 1500 1499 1498 1497
1516 1516 1517 1518 1518 1518 1519 1519 1519 1520 1519 1519 1518 1517 1516 1515 1514 1514 1514 1514 1514 1514 1514 1514 1515 1515 1515 1515 1515 1515 1516 1516 1516 1517 1517 1517 1517 1517 1517 1517 1517 1516 1517 1516 1516 1516 1516 1515 1515 1515 1516 1515 1515 1515 1515 1516 1515 1515 1515 1515 1514 1514 1513 1512 1512 1511 1511 1510 1509 1509 1508 1508 1507 1506 1506 1505 1504 1504 1503 1502 1501 1500 1499 1499 1498
1514 1515 1516 1517 1517 1517 1518 1518 1519 1519 1519 1519 1519 1518 1518 1517 1516 1515 1515 1515 1515 1515 1516 1516 1516 1517 1517 1517 1517 1517 1517 1517 1518 1518 1518 1518 1518 1518 1518 1518 1518 1518 1518 1518 1517 1517 1517 1517 1517 1517 1517 1517 1517 1517 1517 1517 1517 1517 1516 1516 1515 1514 1514 1513 1513 1513 1512 1511 1511 1510 1509 1509 1508 1507 1507 1506 1505 1505 1504 1503 1502 1501 1500 1499 1498
1513 1514 1514 1515 1515 1516 1517 1517 1518 1519 1519 1519 1519 1519 1519 1518 1518 1517 1517 1517 1517 1517 1517 1518 1518 1518 1518 1519 1519 1519 1519 1519 1519 1519 1519 1519 1519 1519 1519 1519 1519 1519 1519 1519 1518 1518 1518 1518 1518 1518 1518 1518 1518 1518 1518 1518 1518 1518 1517 1517 1516 1515 1515 1514 1514 1514 1513 1512 1512 1511 1510 1510 1509 1508 1507 1507 1506 1505 1504 1503 1502 1501 1500 1499 1498
1512 1512 1513 1513 1514 1515 1515 1516 1517 1518 1518 1519 1519 1519 1519 1519 1519 1519 1519 1518 1518 1519 1519 1519 1519 1519 1519 1520 1520 1520 1520 1520 1520 1520 1520 1520 1520 1520 1520 1520 1520 1520 1520 1520 1519 1519 1519 1519 1519 1520 1520 1520 1520 1520 1519 1519 1519 1519 1518 1518 1517 1517 1516 1516 1515 1514 1514 1513 1512 1512 1511 1510 1510 1509 1508 1507 1506 1505 1504 1503 1502 1502 1501 1500 1499
1510 1511 1511 1512 1513 1514 1514 1515 1516 1516 1517 1518 1518 1519 1519 1519 1520 1520 1520 1520 1520 1520 1520 1520 1520 1520 1520 1520 1520 1520 1520 1520 1521 1521 1521 1521 1521 1521 1521 1521 1521 1520 1520 1520 1520 1520 1520 1520 1520 1520 1520 1520 1520 1520 1520 1520 1519 1519 1519 1518 1518 1517 1517 1516 1515 1515 1514 1513 1513 1512 1511 1511 1510 1509 1508 1507 1506 1506 1505 1504 1503 1502 1501 1500 1499
1508 1509 1510 1511 1512 1512 1513 1514 1514 1515 1516 1516 1517 1518 1519 1519 1519 1520 1520 1520 1520 1520 1520 1521 1521 1521 1521 1521 1521 1521 1521 1521 1521 1521 1521 1521 1521 1521 1521 1521 1521 1521 1521 1521 1521 1521 1521 1521 1521 1521 1521 1521 1521 1521 1521 1520 1520 1520 1519 1519 1518 1518 1517 1516 1515 1515 1514 1513 1513 1512 1512 1511 1510 1510 1509 1508 1507 1506 1505 1505 1504 1502 1501 1500 1499
1506 1507 1508 1509 1510 1511 1512 1512 1513 1514 1514 1515 1516 1517 1517 1518 1519 1519 1519 1520 1520 1520 1521 1521 1521 1521 1521 1521 1521 1521 1521 1521 1521 1521 1521 1522 1522 1522 1522 1522 1521 1521 1521 1521 1521 1521 1521 1521 1521 1521 1521 1521 1521 1521 1521 1520 1520 1520 1519 1519 1518 1518 1517 1517 1516 1516 1515 1514 1514 1513 1513 1512 1511 1511 1510 1509 1508 1508 1506 1505 1504 1503 1501 1500 1498
1504 1505 1506 1507 1508 1509 1510 1511 1511 1512 1513 1514 1514 1515 1516 1517 1517 1518 1518 1519 1519 1519 1520 1520 1520 1521 1520 1520 1521 1521 1520 1521 1521 1521 1521 1522 1522 1522 1522 1522 1522 1522 1521 1521 1522 1521 1521 1521 1521 1521 1521 1521 1521 1521 1520 1520 1520 1519 1519 1519 1518 1518 1518 1517 1517 1516 1516 1515 1515 1514 1513 1512 1512 1511 1510 1509 1509 1508 1506 1505 1504 1502 1501 1500 1498
1502 1503 1504 1505 1506 1507 1508 1509 1510 1511 1512 1512 1513 1514 1514 1515 1516 1516 1517 1518 1518 1518 1519 1519 1520 1520 1520 1520 1520 1520 1520 1520 1520 1521 1521 1521 1521 1521 1521 1521 1522 1521 1521 1521 1521 1521 1521 1521 1521 1521 1521 1520 1520 1520 1520 1520 1519 1519 1518 1518 1518 1518 1517 1517 1517 1516 1516 1515 1514 1513 1513 1512 1511 1510 1510 1509 1508 1507 1505 1504 1503 1501 1500 1499 1497
1500 1501 1502 1503 1504 1505 1506 1507 1508 1509 1510 1511 1511 1512 1512 1513 1514 1515 1515 1516 1517 1517 1517 1518 1518 1519 1519 1520 1520 1520 1519 1519 1519 1520 1520 1520 1520 1520 1520 1520 1521 1521 1521 1521 1520 1520 1520 1520 1520 1520 1520 1520 1520 1520 1519 1519 1519 1518 1518 1518 1517 1517 1516 1516 1516 1515 1515 1514 1513 1512 1511 1511 1510 1509 1508 1507 1506 1505 1504 1503 1501 1500 1499 1497 1496
1498 1499 1500 1501 1502 1503 1504 1505 1506 1507 1508 1509 1509 1509 1510 1511 1512 1513 1514 1514 1515 1516 1516 1516 1517 1517 1518 1519 1519 1519 1518 1518 1518 1519 1519 1519 1519 1519 1519 1519 1519 1519 1519 1519 1519 1519 1519 1519 1519 1519 1519 1519 1519 1519 1518 1518 1518 1517 1517 1517 1516 1516 1515 1515 1514 1514 1513 1513 1512 1511 1510 1509 1508 1507 1506 1505 1504 1503 1502 1501 1499 1498 1497 1495 1493
1496 1497 1498 1499 1500 1501 1502 1503 1504 1505 1506 1507 1506 1507 1508 1510 1511 1512 1512 1513 1514 1514 1514 1515 1515 1516 1516 1517 1517 1517 1517 1517 1518 1518 1518 1517 1518 1518 1518 1518 1518 1518 1518 1518 1518 1518 1518 1518 1518 1518 1518 1518 1518 1518 1517 1517 1517 1516 1516 1515 1515 1514 1514 1513 1513 1512 1512 1511 1510 1509 1508 1507 1506 1505 1504 1503 1502 1500 1499 1498 1497 1495 1494 1492 1490
1494 1495 1496 1497 1497 1498 1499 1501 1502 1503 1504 1504 1505 1506 1507 1508 1509 1510 1510 1511 1512 1512 1512 1513 1513 1514 1514 1515 1516 1516 1516 1516 1517 1517 1516 1516 1516 1516 1517 1517 1517 1517 1517 1517 1517 1517 1517 1517 1518 1518 1517 1517 1517 1516 1516 1516 1515 1514 1514 1513 1513 1513 1512 1512 1511 1511 1510 1509 1508 1507 1506 1505 1504 1503 1501 1500 1499 1497 1496 1495 1493 1492 1490 1489 1487
1491 1492 1494 1495 1495 1496 1497 1498 1499 1500 1501 1502 1504 1504 1505 1506 1507 1508 1508 1509 1510 1510 1511 1511 1512 1512 1512 1513 1514 1514 1514 1514 1515 1515 1515 1514 1515 1515 1515 1515 1516 1516 1516 1516 1516 1517 1517 1517 1517 1516 1516 1515 1515 1515 1514 1514 1513 1513 1512 1511 1511 1511 1510 1510 1509 1509 1508 1507 1506 1505 1504 1502 1501 1500 1498 1497 1495 1494 1493 1491 1490 1488 1487 1485 1483
1489 1490 1491 1492 1493 1494 1495 1496 1497 1498 1499 1500 1501 1502 1503 1504 1505 1505 1506 1507 1508 1508 1509 1509 1510 1510 1511 1511 1512 1512 1512 1513 1513 1513 1513 1513 1513 1513 1513 1514 1514 1514 1514 1515 1515 1515 1515 1515 1515 1514 1514 1513 1513 1512 1512 1512 1511 1510 1510 1509 1509 1508 1508 1507 1507 1506 1505 1504 1503 1502 1501 1499 1498 1496 1495 1494 1492 1490 1489 1488 1486 1484 1483 1481 1480
1486 1487 1488 1489 1490 1491 1492 1493 1495 1496 1497 1497 1498 1499 1500 1501 1502 1503 1504 1504 1505 1506 1507 1507 1508 1508 1509 1509 1510 1510 1510 1511 1511 1511 1511 1511 1511 1511 1511 1512 1512 1512 1512 1512 1512 1512 1512 1512 1512 1512 1511 1511 1510 1509 1509 1508 1508 1508 1507 1507 1506 1506 1505 1504 1504 1503 1502 1501 1500 1499 1498 1496 1495 1493 1492 1490 1489 1487 1486 1484 1483 1481 1480 1478 1476
1484 1485 1486 1487 1488 1488 1490 1491 1492 1493 1494 1495 1495 1496 1497 1498 1499 1500 1501 1502 1503 1504 1504 1505 1505 1506 1506 1507 1508 1508 1508 1509 1509 1509 1509 1509 1509 1509 1510 1510 1510 1510 1510 1509 1509 1509 1509 1509 1509 1509 1508 1508 1506 1506 1505 1505 1504 1504 1504 1504 1503 1503 1502 1501 1500 1500 1499 1498 1497 1496 1495 1493 1492 1491 1489 1487 1486 1484 1482 1481 1479 1478 1476 1475 1473
1480 1482 1483 1484 1485 1486 1487 1488 1489 1490 1491 1492 1492 1493 1494 1495 1496 1497 1498 1499 1500 1501 1502 1502 1503 1503 1504 1505 1505 1505 1506 1506 1507 1507 1507 1507 1507 1507 1507 1507 1507 1507 1507 1507 1507 1507 1507 1506 1506 1505 1505 1504 1504 1503 1502 1502 1501 1501 1501 1500 1500 1499 1498 1498 1497 1496 1495 1494 1493 1492 1491 1490 1489 1487 1485 1484 1482 1480 1479 1477 1475 1474 1472 1471 1469
1477 1478 1480 1481 1482 1483 1484 1485 1486 1487 1488 1489 1490 1491 1492 1492 1493 1494 1495 1496 1497 1498 1499 1500 1500 1501 1502 1502 1503 1503 1504 1504 1504 1504 1504 1504 1504 1504 1505 1505 1505 1505 1505 1505 1505 1504 1504 1503 1503 1503 1502 1501 1501 1500 1499 1499 1498 1498 1497 1497 1496 1496 1495 1494 1494 1493 1492 1491 1490 1489 1488 1486 1485 1483 1482 1480 1478 1476 1475 1473 1471 1470 1468 1466 1465
1474 1475 1476 1477 1478 1480 1481 1482 1483 1484 1485 1486 1487 1488 1489 1490 1491 1492 1493 1494 1495 1496 1497 1497 1498 1499 1499 1500 1500 1501 1501 1501 1502 1502 1502 1502 1502 1502 1502 1502 1502 1502 1501 1501 1501 1501 1500 1500 1500 1499 1499 1498 1498 1497 1496 1496 1495 1495 1494 1494 1493 1492 1492 1491 1490 1489 1489 1487 1486 1485 1484 1482 1481 1479 1478 1476 1474 1472 1470 1469 1467 1465 1463 1461 1459
1470 1471 1472 1473 1475 1476 1477 1478 1478 1480 1481 1483 1484 1485 1486 1487 1488 1489 1490 1491 1492 1493 1494 1495 1495 1496 1496 1497 1497 1498 1498 1498 1499 1499 1499 1500 1500 1500 1500 1500 1499 1498 1498 1498 1498 1498 1497 1497 1496 1496 1495 1495 1494 1493 1493 1492 1492 1491 1491 1490 1490 1489 1488 1488 1487 1486 1485 1483 1482 1481 1479 1478 1476 1475 1473 1472 1470 1468 1466 1464 1462 1460 1458 1457 1455